TimeCDT,TemperatureF,Dew PointF,Humidity,Sea Level PressureIn,VisibilityMPH,Wind Direction,Wind SpeedMPH,Gust SpeedMPH,PrecipitationIn,Events,Conditions,WindDirDegrees,DateUTC
12:55 AM,43.0,19.9,40,30.04,10.0,South,11.5,-,N/A,,Overcast,170,2012-10-13 05:55:00
1:55 AM,43.0,19.9,40,30.01,10.0,South,8.1,-,N/A,,Overcast,180,2012-10-13 06:55:00
2:55 AM,44.1,21.0,40,29.97,10.0,SSE,11.5,-,N/A,,Overcast,150,2012-10-13 07:55:00
3:55 AM,43.0,23.0,45,29.94,10.0,SE,6.9,-,N/A,,Overcast,130,2012-10-13 08:55:00
4:55 AM,44.1,27.0,51,29.91,10.0,SE,8.1,-,N/A,,Overcast,140,2012-10-13 09:55:00
5:55 AM,44.1,32.0,63,29.91,10.0,South,9.2,-,N/A,,Overcast,170,2012-10-13 10:55:00
6:38 AM,42.8,35.6,76,29.84,10.0,SSE,10.4,19.6,N/A,,Overcast,160,2012-10-13 11:38:00
6:50 AM,42.8,35.6,76,29.83,10.0,South,12.7,-,N/A,,Overcast,170,2012-10-13 11:50:00
6:55 AM,42.1,36.0,79,29.88,10.0,South,13.8,19.6,N/A,,Overcast,170,2012-10-13 11:55:00
7:12 AM,41.0,35.6,81,29.83,10.0,SSE,9.2,-,N/A,,Overcast,160,2012-10-13 12:12:00
7:55 AM,39.9,37.9,93,29.86,2.0,SSE,6.9,-,N/A,,Overcast,150,2012-10-13 12:55:00
8:39 AM,39.2,37.4,93,29.82,3.0,SSE,6.9,-,N/A,,Overcast,150,2012-10-13 13:39:00
8:47 AM,39.2,37.4,93,29.82,1.8,SE,5.8,-,N/A,,Overcast,140,2012-10-13 13:47:00
8:55 AM,39.9,37.9,93,29.87,1.2,SSE,4.6,-,N/A,,Overcast,150,2012-10-13 13:55:00
9:32 AM,41.0,37.4,87,29.81,1.5,SSE,8.1,-,0.00,,Light Drizzle,150,2012-10-13 14:32:00
9:55 AM,41.0,39.0,93,29.85,1.8,SE,6.9,-,0.01,,Light Drizzle,140,2012-10-13 14:55:00
10:03 AM,41.0,39.2,93,29.80,2.5,SE,6.9,-,0.00,,Light Drizzle,140,2012-10-13 15:03:00
10:16 AM,41.0,39.2,93,29.81,4.0,SSE,6.9,-,0.00,,Light Drizzle,160,2012-10-13 15:16:00
10:38 AM,41.0,39.2,93,29.79,1.8,SSE,5.8,-,N/A,,Overcast,150,2012-10-13 15:38:00
10:55 AM,41.0,39.0,93,29.83,1.0,SSE,6.9,-,0.00,,Light Drizzle,160,2012-10-13 15:55:00
11:31 AM,42.8,39.2,87,29.77,2.0,SSE,5.8,-,0.00,,Light Drizzle,160,2012-10-13 16:31:00
11:55 AM,42.1,39.9,92,29.81,2.5,South,5.8,-,0.00,,Overcast,170,2012-10-13 16:55:00
12:55 PM,43.0,41.0,93,29.78,2.5,SSE,6.9,-,0.01,,Overcast,150,2012-10-13 17:55:00
1:55 PM,43.0,42.1,97,29.78,2.0,South,4.6,-,N/A,,Overcast,170,2012-10-13 18:55:00
2:09 PM,42.8,41.0,93,29.73,1.2,South,4.6,-,N/A,,Overcast,170,2012-10-13 19:09:00
2:22 PM,42.8,41.0,93,29.73,0.8,SSE,4.6,-,N/A,,Light Drizzle,160,2012-10-13 19:22:00
2:55 PM,44.1,42.1,93,29.76,0.8,Calm,Calm,-,0.00,,Light Drizzle,0,2012-10-13 19:55:00
3:55 PM,45.0,43.0,93,29.75,0.8,Calm,Calm,-,0.01,,Overcast,0,2012-10-13 20:55:00
4:09 PM,44.6,42.8,93,29.72,2.0,Calm,Calm,-,N/A,,Overcast,0,2012-10-13 21:09:00
4:55 PM,45.0,43.0,93,29.75,2.0,ESE,3.5,-,N/A,,Overcast,110,2012-10-13 21:55:00
5:55 PM,44.1,43.0,96,29.78,1.0,SSE,3.5,-,N/A,,Overcast,150,2012-10-13 22:55:00
6:13 PM,44.6,42.8,93,29.75,0.2,SSE,3.5,-,N/A,Fog,Fog,160,2012-10-13 23:13:00
6:55 PM,42.8,41.0,93,29.75,0.2,Calm,Calm,-,N/A,Fog,Fog,0,2012-10-13 23:55:00
7:55 PM,42.1,41.0,96,29.80,0.2,Calm,Calm,-,N/A,Fog,Fog,0,2012-10-14 00:55:00
8:55 PM,42.8,41.0,93,29.78,0.2,ESE,4.6,-,N/A,Fog,Fog,120,2012-10-14 01:55:00
9:55 PM,42.1,41.0,96,29.83,0.2,ESE,3.5,-,N/A,Fog,Fog,120,2012-10-14 02:55:00
10:55 PM,42.1,39.9,92,29.84,0.2,East,3.5,-,N/A,Fog,Fog,90,2012-10-14 03:55:00
11:55 PM,42.1,39.9,92,29.83,0.5,ENE,4.6,-,N/A,Fog,Fog,60,2012-10-14 04:55:00